Weather reports worldwide

Advertisment
Pamplona/Noain, Spain (8085): temperature & dewpoint: 16.02.2019 22:00:00 - 22.02.2019 22:00:00 (CET)Pamplona/Noain, Spain (8085): wind speed: 16.02.2019 22:00:00 - 22.02.2019 22:00:00 (CET)Pamplona/Noain, Spain (8085): wind direction: 16.02.2019 22:00:00 - 22.02.2019 22:00:00 (CET)Pamplona/Noain, Spain (8085): reduced air pressure: 16.02.2019 22:00:00 - 22.02.2019 22:00:00 (CET)Pamplona/Noain, Spain (8085): visibility: 16.02.2019 22:00:00 - 22.02.2019 22:00:00 (CET)
Date & Time tt [°C] td [°C] ff [km/h] ff [kn] dd ppp [hPa] vv [km]
22.02.2019 22:00:00 8,5 0,9 5 3 S 1029,8 8
22.02.2019 21:00:00 9,8 0,9 2 1 SSE 1029,6 8
22.02.2019 20:00:00 13,3 0,6 9 5 NNW 1028,7 13
22.02.2019 19:00:00 15,1 0,5 11 6 N 1027,9 15
22.02.2019 18:00:00 18,8 1,4 8 4 WNW 1026,8 10
22.02.2019 17:00:00 21,2 1,3 9 5 W 1026,4 22
22.02.2019 16:00:00 20,7 1,0 8 4 W 1026,7 10
22.02.2019 15:00:00 19,7 0,7 5 3 WSW 1027,1 10
22.02.2019 14:00:00 16,5 2,7 4 2 WSW 1028,7 10
22.02.2019 13:00:00 13,7 3,6 5 3 WNW 1030,4 30
22.02.2019 12:00:00 10,9 2,7 4 2 E 1031,9 15
22.02.2019 11:00:00 7,8 2,9 2 1 NE 1033,3 10
22.02.2019 10:00:00 5,2 2,4 2 1 NE 1034,4 10
22.02.2019 09:00:00 0,8 -0,1 5 3 SE 1035,1 10
22.02.2019 08:00:00 -1,4 -2,2 2 1 - 1035,0 10
22.02.2019 07:00:00 0,2 -0,7 4 2 - 1034,6 10
22.02.2019 06:00:00 0,1 -0,8 2 1 - 1034,6 10
22.02.2019 05:00:00 0,4 -0,6 4 2 S 1034,3 10
22.02.2019 04:00:00 0,8 -0,9 4 2 NNW 1034,5 9
22.02.2019 03:00:00 1,3 -0,6 4 2 ESE 1034,6 9
22.02.2019 02:00:00 2,8 0,2 0 0 N 1034,0 10
22.02.2019 01:00:00 3,2 1,6 5 3 SSE 1033,7 11
22.02.2019 00:00:00 3,8 0,9 8 4 SE 1033,4 10
21.02.2019 23:00:00 5,2 2,2 4 2 - 1032,8 10
21.02.2019 22:00:00 5,8 2,3 9 5 SSE 1031,9 10
21.02.2019 21:00:00 7,9 4,1 4 2 - 1031,0 10
21.02.2019 20:00:00 10,1 4,0 4 2 S 1029,9 13
21.02.2019 19:00:00 11,7 5,3 8 4 W 1028,7 14
21.02.2019 18:00:00 15,9 7,4 8 4 W 1027,3 9
21.02.2019 17:00:00 16,6 5,8 4 2 ESE 1027,0 9
21.02.2019 16:00:00 16,1 6,3 5 3 SSE 1027,2 9
21.02.2019 15:00:00 15,5 6,8 4 2 N 1027,4 12
21.02.2019 14:00:00 14,2 6,0 5 3 NW 1028,1 8
21.02.2019 13:00:00 12,1 5,0 4 2 WNW 1028,9 8
21.02.2019 12:00:00 10,0 4,2 2 1 NNW 1029,9 8
21.02.2019 11:00:00 7,1 3,7 4 2 NE 1030,7 7
21.02.2019 10:00:00 4,1 2,8 0 0 N 1031,2 5
21.02.2019 09:00:00 0,5 -0,1 0 0 N 1031,5 8
21.02.2019 08:00:00 -0,5 -1,1 0 0 N 1030,8 1,9
21.02.2019 07:00:00 0,4 0,0 0 0 N 1030,2 5
21.02.2019 06:00:00 0,5 -0,1 0 0 N 1030,0 5
21.02.2019 05:00:00 0,5 -0,4 0 0 N 1029,6 2,7
21.02.2019 04:00:00 1,6 0,9 4 2 SSE 1029,4 2,8
21.02.2019 03:00:00 1,7 0,9 2 1 - 1029,4 3,1
21.02.2019 02:00:00 2,1 1,3 4 2 S 1029,2 4,3
21.02.2019 01:00:00 2,9 2,1 0 0 N 1028,7 4,0
21.02.2019 00:00:00 3,7 2,7 0 0 N 1027,8 8
20.02.2019 23:00:00 4,0 2,6 8 4 S 1027,6 7
20.02.2019 22:00:00 5,4 3,5 8 4 SE 1026,9 5
20.02.2019 21:00:00 7,4 4,7 4 2 S 1026,1 8
20.02.2019 20:00:00 8,0 5,3 0 0 N 1025,4 10
20.02.2019 19:00:00 10,0 5,8 0 0 N 1024,4 8
20.02.2019 18:00:00 12,5 6,1 5 3 WNW 1023,4 12
20.02.2019 17:00:00 13,5 6,1 11 6 NW 1023,1 14
20.02.2019 16:00:00 14,5 5,6 9 5 SSW 1023,0 7
20.02.2019 15:00:00 14,1 5,5 8 4 SSE 1023,1 14
20.02.2019 14:00:00 13,4 5,8 4 2 S 1023,8 17
20.02.2019 13:00:00 11,4 4,2 2 1 WSW 1024,7 9
20.02.2019 12:00:00 9,7 3,3 4 2 NE 1025,5 19
20.02.2019 11:00:00 7,4 3,1 4 2 ENE 1025,8 8
20.02.2019 10:00:00 3,7 1,3 2 1 - 1026,3 8
20.02.2019 09:00:00 0,6 -0,3 5 3 SE 1026,5 8
20.02.2019 08:00:00 -0,9 -1,9 0 0 N 1025,8 8
20.02.2019 07:00:00 0,0 -0,9 0 0 N 1024,9 8
20.02.2019 06:00:00 -0,2 -1,3 0 0 N 1024,9 8
20.02.2019 05:00:00 0,9 -0,3 4 2 S 1024,5 8
20.02.2019 04:00:00 1,3 0,1 2 1 - 1024,6 8
20.02.2019 03:00:00 1,9 0,4 4 2 - 1024,6 8
20.02.2019 02:00:00 1,7 -0,2 0 0 N 1024,7 10
20.02.2019 01:00:00 2,6 0,6 2 1 ESE 1024,1 11
20.02.2019 00:00:00 3,7 1,5 0 0 N 1023,8 13
19.02.2019 23:00:00 4,0 1,4 4 2 E 1023,4 14
19.02.2019 22:00:00 5,4 2,5 2 1 SE 1022,5 15
19.02.2019 21:00:00 7,1 2,8 5 3 E 1021,7 10
19.02.2019 20:00:00 8,2 3,0 5 3 S 1021,2 10
19.02.2019 19:00:00 9,9 3,8 4 2 W 1020,1 20
19.02.2019 18:00:00 12,8 4,4 4 2 - 1019,0 10
19.02.2019 17:00:00 14,1 4,2 4 2 SW 1018,9 10
19.02.2019 16:00:00 14,2 4,5 4 2 WSW 1019,3 15
19.02.2019 15:00:00 13,9 4,1 4 2 SW 1019,9 10
19.02.2019 14:00:00 12,3 2,9 2 1 SW 1020,8 19
19.02.2019 13:00:00 11,9 2,7 2 1 N 1021,5 20
19.02.2019 12:00:00 9,4 2,6 2 1 WSW 1022,6 16
19.02.2019 11:00:00 7,5 1,7 2 1 S 1023,1 10
19.02.2019 10:00:00 4,9 0,7 2 1 - 1023,8 10
19.02.2019 09:00:00 2,1 0,6 0 0 N 1023,8 10
19.02.2019 08:00:00 0,9 -1,0 4 2 SSW 1023,3 14
19.02.2019 07:00:00 0,9 -1,0 4 2 - 1023,2 10
19.02.2019 06:00:00 0,7 -1,1 4 2 - 1023,4 10
19.02.2019 05:00:00 0,3 -1,3 0 0 N 1023,4 18
19.02.2019 04:00:00 0,7 -1,2 5 3 SSE 1023,4 10
19.02.2019 03:00:00 1,1 -0,9 2 1 ENE 1023,2 8
19.02.2019 02:00:00 1,0 -1,1 2 1 - 1023,2 9
19.02.2019 01:00:00 2,4 -0,4 4 2 - 1022,5 7
19.02.2019 00:00:00 2,8 -0,1 4 2 SSE 1022,4 21
18.02.2019 23:00:00 4,4 0,7 4 2 - 1022,1 10
18.02.2019 22:00:00 5,9 1,9 5 3 NE 1021,3 10
18.02.2019 21:00:00 6,5 1,4 9 5 E 1020,6 10
18.02.2019 20:00:00 8,2 1,2 8 4 ESE 1019,9 28
18.02.2019 19:00:00 10,4 1,5 4 2 WSW 1018,9 30
18.02.2019 18:00:00 12,7 -0,2 9 5 SSE 1017,9 10
18.02.2019 17:00:00 14,4 1,8 11 6 S 1017,6 10
18.02.2019 16:00:00 14,4 2,0 8 4 NNW 1017,9 10
18.02.2019 15:00:00 14,1 2,1 5 3 NNW 1018,3 10
18.02.2019 14:00:00 13,2 2,2 9 5 NW 1019,4 10
18.02.2019 13:00:00 11,9 0,6 5 3 N 1020,6 30
18.02.2019 12:00:00 10,3 -0,8 0 0 N 1021,6 30
18.02.2019 11:00:00 8,4 -0,6 5 3 NNE 1022,3 10
18.02.2019 10:00:00 5,9 -1,6 0 0 N 1022,7 30
18.02.2019 09:00:00 1,3 -1,4 4 2 SSE 1023,6 10
18.02.2019 08:00:00 -1,0 -3,5 4 2 - 1023,5 10
18.02.2019 07:00:00 -0,4 -3,1 4 2 - 1023,2 10
18.02.2019 06:00:00 0,2 -3,3 0 0 N 1023,0 10
18.02.2019 05:00:00 1,3 -3,5 5 3 N 1022,4 9
18.02.2019 04:00:00 3,0 -2,3 8 4 N 1022,2 9
18.02.2019 03:00:00 2,4 -3,0 8 4 NNW 1022,3 30
18.02.2019 02:00:00 3,4 -3,4 0 0 N 1022,0 30
18.02.2019 01:00:00 3,0 -3,6 8 4 W 1022,2 8
18.02.2019 00:00:00 5,8 -4,9 4 2 NNE 1021,8 30
17.02.2019 23:00:00 8,0 -6,1 8 4 W 1021,4 30
17.02.2019 22:00:00 8,0 -6,7 4 2 E 1021,2 30
17.02.2019 21:00:00 9,4 -6,6 8 4 SE 1020,8 30
17.02.2019 20:00:00 10,3 -6,7 8 4 SSW 1020,5 30
17.02.2019 19:00:00 12,0 -7,5 9 5 SSE 1019,7 10
17.02.2019 18:00:00 14,8 -8,1 18 10 SE 1018,9 30
17.02.2019 17:00:00 16,4 -8,2 22 12 SE 1019,2 10
17.02.2019 16:00:00 18,0 -8,6 18 10 S 1019,6 30
17.02.2019 15:00:00 18,1 -5,8 22 12 SSW 1020,3 30
17.02.2019 14:00:00 18,2 -6,5 15 8 S 1021,2 30
17.02.2019 13:00:00 16,9 -6,6 16 9 SE 1022,6 10
17.02.2019 12:00:00 15,9 -7,7 16 9 ESE 1023,7 10
17.02.2019 11:00:00 14,2 -9,0 21 11 ESE 1024,3 10
17.02.2019 10:00:00 12,5 -9,8 16 9 SE 1025,2 30
17.02.2019 09:00:00 8,5 -13,2 4 2 - 1026,2 10
17.02.2019 08:00:00 6,5 -14,5 8 4 S 1026,4 30
17.02.2019 07:00:00 6,1 -12,0 4 2 - 1026,1 10
17.02.2019 06:00:00 8,0 -14,3 11 6 SSE 1025,7 30
17.02.2019 05:00:00 4,9 -9,3 16 9 ESE 1026,2 10
17.02.2019 04:00:00 6,5 -9,0 15 8 ESE 1026,4 9
17.02.2019 03:00:00 6,9 -8,4 18 10 ESE 1026,2 9
17.02.2019 02:00:00 8,2 -7,5 15 8 SSE 1026,1 9
17.02.2019 01:00:00 9,3 -5,1 16 9 ESE 1026,0 8
17.02.2019 00:00:00 5,9 -5,7 5 3 S 1026,5 30
16.02.2019 23:00:00 7,0 -6,4 8 4 S 1026,5 30
16.02.2019 22:00:00 8,2 -6,8 4 2 NNW 1026,3 30

tt = temperature
td = dewpoint
ff = wind speed
dd = wind direction
ppp = reduced air pressure
vv = visibility

Next stations